Flag for Iran Weather past 2 weeks in Mashhad, Iran

Now
28 °F

Clear.


Feels Like: 23 °F
Forecast: 22 / 50 °F
Wind: 5 mph from North

Location: Mashhad Airport

Current Time: Mar 1, 2015 at 2:57:08 AM

Latest Report: Mar 1, 2015 at 2:30 AM


Visibility: 4 mi

Pressure: 30.04 "Hg

Humidity: 100%

Dew point: 28 °F

Location of MashhadLocation

Historic Weather in Mashhad — Graph

°F

Mashhad temperature yesterday

Maximum temperature yesterday: 43 °F (at 4:00 PM)
Minimum temperature yesterday: 28 °F (at 4:00 AM)
Average temperature yesterday: 34 °F

Past Weeks' High & Low Weather Summary

 TemperatureHumidityPressure
High57 °F (Feb 17, 12:50 PM)100% (Feb 14, 2:00 AM)30.39 "Hg (Feb 14, 2:00 AM)
Low28 °F (Feb 25, 6:00 AM)39% (Feb 24, 11:30 AM)29.68 "Hg (Feb 21, 3:20 AM)
Average41 °F84%30.04 "Hg
* Reported Feb 14 1:30 AM — Mar 1 1:30 AM, Mashhad, Weather by CustomWeather, © 2015

Note: Actual official high and low records may vary slightly from our data, if they occured in-between our weather recording intervals... More about our weather records

Advertising

Mashhad weather history for previous 24 hours

 ConditionsComfort  
Time TempWeatherWind HumidityBarometerVisibility
1:30 AM
Sun, Mar 1
30 °FPassing clouds.5 mph93%30.07 "Hg5 mi
1:00 AM30 °FClear.7 mph93%30.07 "Hg10 mi
12:30 AM28 °FClear.5 mph100%30.07 "Hg10 mi
12:00 AM30 °FPassing clouds.7 mph93%30.07 "HgN/A
11:30 PM
Sat, Feb 28
32 °FPassing clouds.7 mph87%30.09 "HgN/A
11:00 PM32 °FPassing clouds.12 mph87%30.09 "HgN/A
10:30 PM32 °FPassing clouds.9 mph87%30.09 "HgN/A
10:00 PM32 °FPassing clouds.7 mph87%30.12 "HgN/A
9:30 PM32 °FPassing clouds.12 mph87%30.12 "HgN/A
9:00 PM32 °FPassing clouds.9 mph87%30.12 "HgN/A
8:30 PM32 °FPassing clouds.9 mph93%30.12 "HgN/A
8:00 PM34 °FPassing clouds.7 mph81%30.15 "HgN/A
7:30 PM37 °FPassing clouds.9 mph65%30.12 "HgN/A
7:00 PM36 °FPassing clouds.9 mph75%30.12 "HgN/A
6:30 PM37 °FPassing clouds.7 mph65%30.12 "HgN/A
6:00 PM37 °FPassing clouds.14 mph52%30.12 "HgN/A
5:30 PM39 °FPassing clouds.9 mph56%30.12 "HgN/A
5:00 PM39 °FScattered clouds.7 mph52%30.12 "HgN/A
4:30 PM39 °FPassing clouds.No wind48%30.12 "HgN/A
4:00 PM43 °FPassing clouds.9 mph42%30.12 "HgN/A
3:30 PM41 °FPassing clouds.7 mph45%30.12 "HgN/A
3:00 PM41 °FScattered clouds.7 mph45%30.15 "HgN/A
2:30 PM41 °FScattered clouds.7 mph53%30.15 "HgN/A
2:00 PM41 °FScattered clouds.12 mph53%30.18 "HgN/A
1:30 PM41 °FPartly sunny.9 mph49%30.18 "HgN/A
1:00 PM39 °FPartly sunny.9 mph56%30.18 "HgN/A
12:30 PM37 °FPartly sunny.7 mph56%30.21 "HgN/A
12:00 PM37 °FPartly sunny.9 mph60%30.21 "HgN/A
11:30 AM36 °FPartly sunny.9 mph65%30.24 "HgN/A
11:00 AM36 °FPartly sunny.9 mph60%30.24 "HgN/A
10:20 AM36 °FPartly sunny.9 mph60%30.27 "HgN/A
10:00 AM34 °FPartly sunny.9 mph75%30.27 "HgN/A
9:30 AM36 °FPartly sunny.12 mph70%30.27 "HgN/A
9:00 AM34 °FPartly sunny.9 mph70%30.30 "HgN/A
8:20 AM30 °FPartly sunny.9 mph86%30.30 "HgN/A
8:00 AM30 °FPartly sunny.7 mph86%30.30 "HgN/A
7:30 AM28 °FPartly sunny.7 mph93%30.30 "HgN/A
7:00 AM28 °FBroken clouds.7 mph93%30.27 "HgN/A
6:30 AM28 °FPartly cloudy.9 mph93%30.27 "HgN/A
6:00 AM28 °FPartly cloudy.7 mph93%30.27 "HgN/A
5:30 AM28 °FPassing clouds.9 mph93%30.27 "HgN/A
5:00 AM28 °FPassing clouds.9 mph93%30.27 "HgN/A
4:30 AM28 °FPassing clouds.9 mph93%30.27 "HgN/A
4:00 AM28 °FOvercast.12 mph100%30.27 "HgN/A
3:20 AM30 °FOvercast.14 mph93%30.27 "HgN/A
2:55 AM30 °FPassing clouds.9 mph80%30.30 "HgN/A
2:30 AM30 °FPassing clouds.9 mph80%30.21 "HgN/A
Weather by CustomWeather, © 2015

See weather overviewHow to use our weather pages